Weather in Zarechnoye

Russia / Lipetsk Oblast     52°13′46″N   38°04′18″E
temp.,
°C
wind,
m/s
gust,
m/s
humid.,
%
clouds,
%
prec.,
mm/h
press.,
hPa
HPBL,
m
11 april, sun
sun1100:00+5n22550 0.0 102711
03:00+3n22605 0.0 102817
06:00+2n2265100 0.0 102921
09:00+6nne3556100 0.0 1030259
12:00+11nne5640100 0.0 1029971
15:00+12ne5736100 0.0 10291181
18:00+11ne594598 0.0 1029739
21:00+7ne41160100 0.0 1029266
12 april, mon
mon1200:00+6ne5126389 0.0 1029314
03:00+5ne41073100 0.0 1028292
06:00+5ne41084100 0.0 1027277
09:00+7ene5884100 0.0 1027307
12:00+14e5768100 0.0 1025549
15:00+18e6855100 0.0 1023915
18:00+17e365660 0.0 1022144
21:00+13ese496760 0.0 1023144
13 april, tue
tue1300:00+12se4127099 0.0 1023200
03:00+11sse3380100 0.0 102340
06:00+10ese4782100 0.0 1023113
09:00+13ese5869100 0.0 1023329
12:00+17se6949100 0.0 1022958
15:00+18sse6944100 0.0 10211431
18:00+17se484966 0.0 1020303
21:00+13ese345697 0.0 102042
14 april, wed
wed1400:00+13se3468100 0.0 102071
03:00+12se41170100 0.0 1019253
06:00+10se498298 0.0 1019183
09:00+13sse4875100 0.0 1019406
12:00+16s5757100 0.0 10191105
15:00+17s575599 0.1 10181061
18:00+16s366299 0.0 1018570
21:00+12s347799 0.0 101875
15 april, thu
thu1500:00+12w2285100 0.3 101825
03:00+11se1185100 0.3 101810
06:00+11e1185100 0.0 101710
09:00+14ese2370100 0.0 1017260
12:00+15s2451100 0.6 1016402
15:00+16se3446100 0.6 10151757
18:00+15ene3553100 0.0 1013295
21:00+12nne3668100 0.0 1013117